This demonstration page uses our WeatherBlox Daily Observations layout. Learn more.

Hourly Observations for February 8, 2021

Temp ( °F °C ) Dew Point ( °F °C ) Humidity (%) Winds ( mph kmh ) Pressure ( in mb ) Visibility ( mi km ) Precip ( " mm )
12:15 am 00:15 Clear 27 -3 10 -12 50 50 N 3 6 30.28 1025 10 16.0934 0 0
12:35 am 00:35 Clear 27 -3 9 -13 46 46 N 3 6 30.29 1026 10 16.0934 0 0
12:55 am 00:55 Clear 27 -3 9 -13 46 46 Calm 30.29 1026 10 16.0934 0 0
1:15 am 01:15 Clear 27 -3 9 -13 46 46 N 5 7 30.3 1026 10 16.0934 0 0
1:35 am 01:35 Clear 27 -3 9 -13 46 46 N 6 9 30.31 1026 10 16.0934 0 0
1:55 am 01:55 Clear 27 -3 7 -14 43 43 Calm 30.31 1026 10 16.0934 0 0
2:15 am 02:15 Clear 25 -4 9 -13 50 50 Calm 30.32 1027 10 16.0934 0 0
2:35 am 02:35 Clear 25 -4 9 -13 50 50 N 3 6 30.33 1027 10 16.0934 0 0
2:55 am 02:55 Clear 23 -5 9 -13 54 54 Calm 30.35 1028 10 16.0934 0 0
3:15 am 03:15 Clear 23 -5 10 -12 58 58 Calm 30.35 1028 10 16.0934 0 0
3:35 am 03:35 Partly Cloudy 25 -4 10 -12 54 54 Calm 30.35 1028 10 16.0934 0 0
3:55 am 03:55 Mostly Cloudy 23 -5 14 -10 68 68 Calm 30.36 1028 10 16.0934 0 0
4:15 am 04:15 Partly Cloudy 23 -5 10 -12 58 58 Calm 30.36 1028 10 16.0934 0 0
4:35 am 04:35 Clear 23 -5 10 -12 58 58 Calm 30.36 1028 10 16.0934 0 0
4:55 am 04:55 Clear 23 -5 10 -12 58 58 NNE 5 7 30.38 1029 10 16.0934 0 0
5:15 am 05:15 Clear 23 -5 9 -13 54 54 NNE 7 11 30.38 1029 10 16.0934 0 0
5:35 am 05:35 Partly Cloudy 23 -5 9 -13 54 54 NNE 6 9 30.39 1029 10 16.0934 0 0
5:55 am 05:55 Partly Cloudy 23 -5 9 -13 54 54 NNE 6 9 30.39 1029 10 16.0934 0 0
6:15 am 06:15 Clear 23 -5 10 -12 58 58 NNE 10 17 30.39 1029 10 16.0934 0 0
6:35 am 06:35 Clear 23 -5 9 -13 54 54 NNE 3 6 30.41 1030 10 16.0934 0 0
6:55 am 06:55 Clear 23 -5 9 -13 54 54 NNE 6 9 30.41 1030 10 16.0934 0 0
7:15 am 07:15 Sunny 23 -5 9 -13 54 54 NNE 3 6 30.43 1030 10 16.0934 0 0
7:35 am 07:35 Sunny 21 -6 10 -12 63 63 Calm 30.44 1031 10 16.0934 0 0
7:55 am 07:55 Sunny 21 -6 10 -12 63 63 Calm 30.45 1031 10 16.0934 0 0
8:15 am 08:15 Sunny 23 -5 10 -12 58 58 Calm 30.46 1032 10 16.0934 0 0
8:35 am 08:35 Sunny 23 -5 10 -12 58 58 NE 3 6 30.46 1032 10 16.0934 0 0
8:55 am 08:55 Sunny 23 -5 10 -12 58 58 NE 5 7 30.47 1032 10 16.0934 0 0
9:15 am 09:15 Sunny 25 -4 10 -12 54 54 Calm 30.48 1032 10 16.0934 0 0
9:35 am 09:35 Sunny 25 -4 10 -12 54 54 Calm 30.48 1032 10 16.0934 0 0
9:55 am 09:55 Sunny 27 -3 10 -12 50 50 ENE 3 6 30.49 1032 10 16.0934 0 0
10:15 am 10:15 Sunny 27 -3 10 -12 50 50 Calm 30.49 1032 10 16.0934 0 0
10:35 am 10:35 Sunny 27 -3 10 -12 50 50 Calm 30.49 1032 10 16.0934 0 0
10:55 am 10:55 Sunny 28 -2 12 -11 51 51 ENE 3 6 30.49 1032 10 16.0934 0 0
11:15 am 11:15 Sunny 28 -2 12 -11 51 51 Calm 30.49 1032 10 16.0934 0 0
11:35 am 11:35 Sunny 28 -2 12 -11 51 51 Calm 30.49 1032 10 16.0934 0 0
11:55 am 11:55 Sunny 30 -1 14 -10 51 51 Calm 30.48 1032 10 16.0934 0 0
12:15 pm 12:15 Sunny 30 -1 14 -10 51 51 NNW 3 6 30.47 1032 10 16.0934 0 0
12:35 pm 12:35 Sunny 32 0 14 -10 47 47 S 6 9 30.46 1032 10 16.0934 0 0
12:55 pm 12:55 Sunny 32 0 16 -9 51 51 SW 3 6 30.44 1031 10 16.0934 0 0
1:15 pm 13:15 Sunny 32 0 16 -9 51 51 SSW 9 15 30.43 1031 10 16.0934 0 0
1:35 pm 13:35 Sunny 34 1 18 -8 51 51 SSW 8 13 30.42 1030 10 16.0934 0 0
1:55 pm 13:55 Sunny 34 1 16 -9 48 48 SSE 8 13 30.4 1029 10 16.0934 0 0
2:15 pm 14:15 Sunny 36 2 18 -8 48 48 S 8 13 30.39 1029 10 16.0934 0 0
2:35 pm 14:35 Sunny 36 2 18 -8 48 48 S 9 15 30.39 1029 10 16.0934 0 0
2:55 pm 14:55 Sunny 36 2 18 -8 48 48 S 12 19 30.38 1029 10 16.0934 0 0
3:15 pm 15:15 Sunny 36 2 19 -7 52 52 SSW 10 17 30.38 1029 10 16.0934 0 0
3:35 pm 15:35 Sunny 37 3 19 -7 48 48 S 9 15 30.37 1028 10 16.0934 0 0
3:55 pm 15:55 Sunny 37 3 21 -6 52 52 SSW 13 20 30.37 1028 10 16.0934 0 0
4:15 pm 16:15 Sunny 37 3 19 -7 48 48 S 9 15 30.37 1028 10 16.0934 0 0
4:35 pm 16:35 Sunny 37 3 19 -7 48 48 S 9 15 30.37 1028 10 16.0934 0 0
4:55 pm 16:55 Sunny 37 3 21 -6 52 52 S 9 15 30.38 1029 10 16.0934 0 0
5:15 pm 17:15 Sunny 36 2 21 -6 56 56 S 6 9 30.38 1029 10 16.0934 0 0
5:35 pm 17:35 Sunny 36 2 21 -6 56 56 S 8 13 30.38 1029 10 16.0934 0 0
5:55 pm 17:55 Clear 36 2 21 -6 56 56 SSE 6 9 30.38 1029 10 16.0934 0 0
6:15 pm 18:15 Clear 36 2 19 -7 52 52 SSE 8 13 30.38 1029 10 16.0934 0 0
6:35 pm 18:35 Clear 34 1 19 -7 56 56 SSE 8 13 30.38 1029 10 16.0934 0 0
6:55 pm 18:55 Clear 34 1 19 -7 56 56 SSE 7 11 30.37 1028 10 16.0934 0 0
7:15 pm 19:15 Clear 34 1 21 -6 60 60 SE 5 7 30.37 1028 10 16.0934 0 0
7:35 pm 19:35 Clear 34 1 21 -6 60 60 SSE 9 15 30.37 1028 10 16.0934 0 0
7:55 pm 19:55 Clear 34 1 21 -6 60 60 SSE 8 13 30.38 1029 10 16.0934 0 0
8:15 pm 20:15 Clear 34 1 21 -6 60 60 SSE 10 17 30.37 1028 10 16.0934 0 0
8:35 pm 20:35 Clear 32 0 23 -5 69 69 SSE 9 15 30.38 1029 10 16.0934 0 0
8:55 pm 20:55 Clear 32 0 23 -5 69 69 SSE 8 13 30.39 1029 10 16.0934 0 0
9:15 pm 21:15 Clear 32 0 23 -5 69 69 SE 6 9 30.39 1029 10 16.0934 0 0
9:35 pm 21:35 Clear 32 0 23 -5 69 69 SE 7 11 30.38 1029 10 16.0934 0 0
9:55 pm 21:55 Clear 32 0 21 -6 64 64 SSE 8 13 30.38 1029 10 16.0934 0 0
10:15 pm 22:15 Clear 32 0 21 -6 64 64 SE 6 9 30.37 1029 10 16.0934 0 0
10:35 pm 22:35 Clear 32 0 21 -6 64 64 SSE 7 11 30.36 1028 10 16.0934 0 0
10:55 pm 22:55 Clear 32 0 21 -6 64 64 SSE 7 11 30.35 1028 10 16.0934 0 0
11:15 pm 23:15 Clear 32 0 21 -6 64 64 SE 5 7 30.35 1028 10 16.0934 0 0
11:35 pm 23:35 Clear 30 -1 23 -5 75 75 Calm 30.37 1029 10 16.0934 0 0
11:55 pm 23:55 Partly Cloudy 30 -1 23 -5 75 75 Calm 30.37 1029 10 16.0934 0 0

Powered by AerisWeather